Overview Statistics Trail Chart Weather Telemetry Raw packets
 

This is the latest recevied weather packets stored in our database for station/object EA7OC-10. If no packets are shown the sender has not sent any weather packets the latest 10 day(s).

<< 1 2 3 4 5 6 >>
Time Temp. Humidity Pressure Rain* Wind** Luminosity Snow
1788562720 31.67° C 22% 1018.6 hPa - - - -
1788561820 31.11° C 22% 1018.5 hPa - - - -
1788560920 31.11° C 22% 1018.1 hPa - - - -
1788560020 31.11° C 22% 1017.9 hPa - - - -
1788559120 31.67° C 22% 1017.9 hPa - - - -
1788558220 31.67° C 22% 1017.8 hPa - - - -
1788557320 31.67° C 22% 1017.8 hPa - - - -
1788556420 32.22° C 22% 1017.8 hPa - - - -
1788555519 32.22° C 22% 1017.9 hPa - - - -
1788554619 32.78° C 21% 1017.9 hPa - - - -
1788553719 33.33° C 21% 1017.6 hPa - - - -
1788552819 33.89° C 21% 1017.4 hPa - - - -
1788551919 35° C 21% 1017.2 hPa - - - -
1788551019 35.56° C 21% 1017.1 hPa - - - -
1788550119 36.11° C 21% 1016.9 hPa - - - -
1788549219 36.67° C 21% 1016.8 hPa - - - -
1788548319 37.22° C 21% 1016.7 hPa - - - -
1788547418 38.33° C 20% 1016.5 hPa - - - -
1788546518 40° C 20% 1016.7 hPa - - - -
1788545618 42.22° C 20% 1016.7 hPa - - - -
1788544718 44.44° C 21% 1016.8 hPa - - - -
1788543818 46.11° C 21% 1016.7 hPa - - - -
1788542941 47.78° C 21% 1016.9 hPa - - - -
1788542018 48.89° C 21% 1016.9 hPa - - - -
1788541118 50° C 21% 1016.9 hPa - - - -

* Rain since midnight (hover to see other rain measurements)
** Current wind speed in m/s (hover to see current wind gust speed)